Weather History for Wrangell, AK

Change the Weather History Date:

Saturday, July 20, 2013

  Actual Average Record
Temperature  
Mean Temperature 56 °F -  
Max Temperature 60 °F 65 °F 81 °F (1990)
Min Temperature 53 °F 49 °F 38 °F (1973)
Degree Days  
Heating Degree Days 8    
Growing Degree Days 6 (Base 50)    
Moisture  
Dew Point 52 °F    
Average Humidity 86    
Maximum Humidity 88    
Minimum Humidity 77    
Precipitation  
Precipitation 0.00 in - - ()
Sea Level Pressure  
Sea Level Pressure 30.09 in    
Wind  
Wind Speed 2 mph (NNW)    
Max Wind Speed 6 mph    
Max Gust Speed -    
Visibility 10 miles    
Events      
Averages and records for this station are not official NWS values.
T = Trace of Precipitation, MM = Missing Value Source: NWS Daily Summary

Daily Weather History Graph

Daily Weather History Graph

Search for Another Location

Airport:

Trip Planner

Search our weather history database for the weather conditions in past years. The results will help you decide how hot, cold, wet, or windy it might be!

Date:

Astronomy

Jul. 20, 2013 Rise Set
Actual Time 4:29 AM AKDT 9:20 PM AKDT
Civil Twilight 3:34 AM AKDT 10:15 PM AKDT
Nautical Twilight 1:52 AM AKDT 11:53 PM AKDT
Astronomical Twilight Sun does not rise Sun does not rise
Moon 7:26 PM AKDT (7/20) 2:19 AM AKDT (7/20)
Length of Visible Light 18h 40m
Length of Day
16h 50m
Waxing Gibbous, 94% of the Moon is Illuminated
Jul 20
Waxing Gibbous
Jul 22
Full
Jul 29
Last Quarter
Aug 6
New
Aug 14
First Quarter

Hourly Weather History & Observations

Time (AKDT) Temp. Dew Point Humidity Pressure Visibility Wind Dir Wind Speed Gust Speed Precip Events Conditions
12:16 AM 57.2 °F 53.6 °F 88% 30.14 in 10.0 mi NW 4.6 mph - N/A   Overcast
12:36 AM 57.2 °F 51.8 °F 82% 30.15 in 10.0 mi NW 3.5 mph - N/A   Overcast
12:56 AM 57.2 °F 51.8 °F 82% 30.15 in 10.0 mi Calm Calm - N/A   Overcast
1:16 AM 57.2 °F 51.8 °F 82% 30.13 in 10.0 mi Calm Calm - N/A   Overcast
1:36 AM 55.4 °F 51.8 °F 88% 30.13 in 10.0 mi Calm Calm - N/A   Overcast
1:56 AM 55.4 °F 51.8 °F 88% 30.13 in 10.0 mi Calm Calm - N/A   Overcast
2:16 AM 55.4 °F 51.8 °F 88% 30.13 in 10.0 mi Calm Calm - N/A   Overcast
2:36 AM 57.2 °F 51.8 °F 82% 30.13 in 5.0 mi Calm Calm - N/A   Overcast
2:56 AM 55.4 °F 51.8 °F 88% 30.12 in 7.0 mi NNW 3.5 mph - N/A   Overcast
3:16 AM 55.4 °F 51.8 °F 88% 30.12 in 9.0 mi Calm Calm - N/A   Overcast
3:36 AM 55.4 °F 51.8 °F 88% 30.12 in 10.0 mi Calm Calm - N/A   Overcast
3:56 AM 55.4 °F 50.0 °F 82% 30.11 in 10.0 mi Calm Calm - N/A   Overcast
4:16 AM 55.4 °F 51.8 °F 88% 30.12 in 10.0 mi Calm Calm - N/A   Overcast
4:36 AM 55.4 °F 51.8 °F 88% 30.12 in 10.0 mi Calm Calm - N/A   Overcast
4:56 AM 55.4 °F 51.8 °F 88% 30.12 in 10.0 mi Calm Calm - N/A   Overcast
5:16 AM 55.4 °F 51.8 °F 88% 30.11 in 10.0 mi NNE 3.5 mph - N/A   Overcast
5:36 AM 53.6 °F 50.0 °F 88% 30.11 in 10.0 mi Calm Calm - N/A   Overcast
5:56 AM 55.4 °F 50.0 °F 82% 30.11 in 10.0 mi Calm Calm - N/A   Overcast
6:16 AM 55.4 °F 51.8 °F 88% 30.10 in 10.0 mi Calm Calm - N/A   Overcast
6:36 AM 55.4 °F 51.8 °F 88% 30.10 in 10.0 mi Calm Calm - N/A   Overcast
6:56 AM 55.4 °F 51.8 °F 88% 30.10 in 10.0 mi Calm Calm - N/A   Overcast
7:16 AM 55.4 °F 50.0 °F 82% 30.10 in 10.0 mi Calm Calm - N/A   Overcast
7:36 AM 55.4 °F 51.8 °F 88% 30.11 in 10.0 mi NW 3.5 mph - N/A   Overcast
7:56 AM 55.4 °F 51.8 °F 88% 30.10 in 10.0 mi NW 3.5 mph - N/A   Overcast
8:16 AM 55.4 °F 51.8 °F 88% 30.10 in 10.0 mi Calm Calm - N/A   Overcast
8:36 AM 55.4 °F 51.8 °F 88% 30.10 in 10.0 mi NNW 3.5 mph - N/A   Overcast
8:56 AM 55.4 °F 51.8 °F 88% 30.10 in 10.0 mi North 3.5 mph - N/A   Overcast
9:16 AM 55.4 °F 51.8 °F 88% 30.10 in 10.0 mi Calm Calm - N/A   Overcast
9:36 AM 55.4 °F 51.8 °F 88% 30.10 in 10.0 mi Calm Calm - N/A   Overcast
9:56 AM 55.4 °F 51.8 °F 88% 30.10 in 10.0 mi North 3.5 mph - N/A   Overcast
10:16 AM 55.4 °F 51.8 °F 88% 30.10 in 10.0 mi Calm Calm - N/A   Overcast
10:36 AM 57.2 °F 51.8 °F 82% 30.09 in 10.0 mi Calm Calm - N/A   Overcast
10:56 AM 55.4 °F 51.8 °F 88% 30.09 in 10.0 mi NW 3.5 mph - N/A   Overcast
11:16 AM 55.4 °F 51.8 °F 88% 30.09 in 10.0 mi NNW 3.5 mph - N/A   Overcast
11:36 AM 55.4 °F 51.8 °F 88% 30.10 in 10.0 mi Calm Calm - N/A   Overcast
11:56 AM 57.2 °F 51.8 °F 82% 30.10 in 10.0 mi Calm Calm - N/A   Overcast
12:16 PM 57.2 °F 51.8 °F 82% 30.10 in 10.0 mi Calm Calm - N/A   Overcast
12:36 PM 57.2 °F 51.8 °F 82% 30.10 in 10.0 mi Calm Calm - N/A   Overcast
12:56 PM 57.2 °F 51.8 °F 82% 30.10 in 10.0 mi Calm Calm - N/A   Overcast
1:16 PM 57.2 °F 53.6 °F 88% 30.10 in 10.0 mi Calm Calm - N/A   Overcast
1:36 PM 57.2 °F 53.6 °F 88% 30.10 in 10.0 mi Calm Calm - N/A   Overcast
1:56 PM 57.2 °F 53.6 °F 88% 30.10 in 10.0 mi Calm Calm - N/A   Overcast
2:16 PM 57.2 °F 53.6 °F 88% 30.09 in 10.0 mi NE 3.5 mph - N/A   Overcast
2:36 PM 57.2 °F 53.6 °F 88% 30.09 in 10.0 mi Calm Calm - N/A   Overcast
2:56 PM 59.0 °F 53.6 °F 82% 30.09 in 10.0 mi Calm Calm - N/A   Overcast
3:16 PM 57.2 °F 53.6 °F 88% 30.09 in 10.0 mi Calm Calm - N/A   Overcast
3:36 PM 59.0 °F 53.6 °F 82% 30.09 in 10.0 mi Calm Calm - N/A   Overcast
3:56 PM 57.2 °F 53.6 °F 88% 30.08 in 10.0 mi Calm Calm - N/A   Overcast
4:16 PM 57.2 °F 51.8 °F 82% 30.08 in 10.0 mi NNW 3.5 mph - N/A   Overcast
4:36 PM 57.2 °F 51.8 °F 82% 30.07 in 10.0 mi NNW 3.5 mph - N/A   Overcast
4:56 PM 60.8 °F 53.6 °F 77% 30.07 in 10.0 mi NNW 3.5 mph - N/A   Overcast
5:16 PM 59.0 °F 53.6 °F 82% 30.07 in 10.0 mi NNW 3.5 mph - N/A   Overcast
5:36 PM 59.0 °F 53.6 °F 82% 30.06 in 10.0 mi NNW 3.5 mph - N/A   Overcast
5:56 PM 59.0 °F 53.6 °F 82% 30.06 in 10.0 mi Calm Calm - N/A   Mostly Cloudy
6:16 PM 59.0 °F 53.6 °F 82% 30.05 in 10.0 mi Calm Calm - N/A   Mostly Cloudy
6:36 PM 59.0 °F 53.6 °F 82% 30.05 in 10.0 mi NNW 3.5 mph - N/A   Mostly Cloudy
6:56 PM 57.2 °F 53.6 °F 88% 30.05 in 10.0 mi NNW 5.8 mph - N/A   Overcast
7:16 PM 57.2 °F 53.6 °F 88% 30.05 in 10.0 mi NW 3.5 mph - N/A   Overcast
7:36 PM 59.0 °F 53.6 °F 82% 30.05 in 10.0 mi NW 3.5 mph - N/A   Overcast
7:56 PM 57.2 °F 53.6 °F 88% 30.05 in 10.0 mi North 3.5 mph - N/A   Overcast
8:16 PM 57.2 °F 53.6 °F 88% 30.05 in 10.0 mi Calm Calm - N/A   Overcast
8:36 PM 57.2 °F 53.6 °F 88% 30.05 in 10.0 mi Calm Calm - N/A   Overcast
8:56 PM 57.2 °F 53.6 °F 88% 30.05 in 10.0 mi WNW 5.8 mph - N/A   Overcast
9:16 PM 57.2 °F 53.6 °F 88% 30.05 in 10.0 mi North 3.5 mph - N/A   Overcast
9:36 PM 57.2 °F 53.6 °F 88% 30.05 in 10.0 mi ESE 3.5 mph - N/A   Overcast
9:56 PM 57.2 °F 53.6 °F 88% 30.05 in 10.0 mi ESE 3.5 mph - N/A   Overcast
10:16 PM 57.2 °F 53.6 °F 88% 30.05 in 10.0 mi Calm Calm - N/A   Overcast
10:36 PM 57.2 °F 51.8 °F 82% 30.05 in 10.0 mi Calm Calm - N/A   Overcast
10:56 PM 55.4 °F 51.8 °F 88% 30.04 in 10.0 mi Calm Calm - N/A   Overcast
11:16 PM 55.4 °F 51.8 °F 88% 30.04 in 10.0 mi SSE 3.5 mph - N/A   Overcast
11:36 PM 57.2 °F 51.8 °F 82% 30.04 in 10.0 mi SSE 4.6 mph - N/A   Overcast
11:56 PM 57.2 °F 51.8 °F 82% 30.03 in 10.0 mi Calm Calm - N/A   Overcast